[[{"header":{"parameterUnit":"m.s-1","parameterCategory":1,"la1":30.2991,"la2":30.254,"lo1":-89.0895,"lo2":-89.0444,"dy":0.0017,"dx":0.0017,"nx":28,"ny":28,"refTime":"2025-11-19T09:00:00:Z","depth":0,"parameterNumber":2,"parameterNumberName":"U-component_of_WINDS"},"data":[0,0,0,0,0,0,0,0,0,0,0,0,0,0,0,0,0,0,0,0,0,0,0,0,0,0,0,0,0,0,0,0,0,0,0,0,0,0,0,0,0,0,0,0,0,0,0,0,0,0,0,0,0,0,0,0,0,0,-2.1493,-2.1494,0,-2.1529,-2.153,-2.153,-2.15,-2.1498,-2.1497,-2.1496,-2.1532,-2.1534,-2.1536,0,0,0,0,0,0,0,0,0,0,0,0,0,-2.1399,-2.1401,-2.1493,-2.1494,-2.1494,-2.1529,-2.153,-2.153,-2.15,-2.1498,-2.1497,-2.1495,-2.1531,-2.1534,-2.1536,0,0,0,0,0,0,0,0,0,0,0,0,0,-2.1438,-2.1401,-2.1493,-2.1483,-2.1483,-2.1529,-2.153,-2.153,-2.15,-2.1498,-2.1496,-2.1495,-2.153,-2.1533,-2.1537,-2.1594,0,0,-2.1546,-2.1548,0,0,0,0,0,0,0,0,-2.1436,-2.1441,-2.1484,-2.1484,-2.1484,-2.1508,-2.151,-2.1552,-2.1501,-2.1494,-2.1496,-2.1494,-2.1525,-2.1529,-2.154,-2.1596,-2.1597,-2.1547,-2.1549,-2.155,-2.1551,0,0,0,0,0,0,0,-2.1433,-2.144,-2.1508,-2.1485,-2.1485,-2.1477,-2.1481,-2.1517,-2.152,-2.1494,-2.1492,-2.1497,-2.1525,-2.1537,-2.154,-2.1598,-2.1547,-2.1549,-2.1551,-2.1553,-2.1704,-2.1706,0,0,0,0,0,0,-2.1431,-2.1438,-2.1506,-2.1509,-2.1455,-2.148,-2.1484,-2.1502,-2.1519,-2.152,-2.1498,-2.1495,-2.1532,-2.1537,-2.1541,-2.161,-2.155,-2.1553,-2.1555,-2.1702,-2.1705,-2.1707,0,0,0,0,0,0,-2.1429,-2.1438,-2.1505,-2.1473,-2.1481,-2.1484,-2.1504,-2.1504,-2.1516,-2.1522,-2.1523,-2.151,-2.1531,-2.1537,-2.1582,-2.1611,-2.1554,-2.1557,-2.17,-2.1703,-2.1706,-2.1748,0,0,0,0,0,0,-2.1427,-2.1437,-2.1459,-2.1473,-2.1482,-2.1544,-2.1506,-2.1506,-2.1521,-2.1518,-2.1533,-2.1534,-2.153,-2.1577,-2.1585,-2.1614,-2.156,-2.1697,-2.1701,-2.1705,-2.1744,-2.1752,-2.1759,0,0,0,0,0,-2.1424,-2.1469,-2.146,-2.1469,-2.151,-2.1546,-2.1551,-2.1546,-2.1524,-2.1546,-2.155,-2.1534,-2.1607,-2.1582,-2.159,-2.1621,-2.1695,-2.17,-2.1704,-2.174,-2.175,-2.1759,0,0,0,0,0,0,-2.1457,-2.1471,-2.1461,-2.1513,-2.1529,-2.1541,-2.1568,-2.1556,-2.1578,-2.1574,-2.1566,-2.157,-2.1617,-2.1624,-2.1595,-2.1678,-2.1647,-2.1654,-2.1672,-2.1681,-2.1689,-2.1686,-2.1562,0,0,0,0,0,-2.1471,-2.15,-2.151,-2.1554,-2.1563,-2.1565,-2.158,-2.1575,-2.1591,-2.1597,-2.1605,-2.1621,-2.1648,-2.1665,-2.169,-2.1745,-2.1748,-2.1771,-2.1779,-2.1785,-2.179,-2.182,-2.183,-2.1722,-2.1722,-2.1722,0,0,-2.1499,-2.151,-2.1528,-2.1561,-2.1573,-2.1603,-2.157,-2.1603,-2.1625,-2.1602,-2.1644,-2.1651,-2.1668,-2.1719,-2.1741,-2.1726,-2.1821,-2.1791,-2.1796,-2.1798,-2.1826,-2.1836,-2.1846,-2.1726,-2.1725,-2.1724,0,0,-2.1565,-2.1577,-2.1615,-2.1628,-2.1646,-2.1647,-2.1657,-2.1671,-2.1675,-2.1718,-2.1701,-2.1728,-2.1774,-2.1787,-2.18,-2.1873,-2.1859,-2.1882,-2.1921,-2.195,-2.1959,-2.1966,-2.1992,-2.2001,-2.1887,-2.1887,-2.1888,0,-2.1597,-2.1641,-2.1636,-2.167,-2.1685,-2.1667,-2.1706,-2.1719,-2.1744,-2.1755,-2.1738,-2.1796,-2.1807,-2.186,-2.1878,-2.1889,-2.19,-2.1879,-2.1958,-2.1966,-2.1972,-2.1997,-2.2007,-2.189,-2.189,-2.1889,-2.1889,0,-2.168,-2.1711,-2.174,-2.1766,-2.1785,-2.1821,-2.1821,-2.1841,-2.1834,-2.1837,-2.1882,-2.1894,-2.1921,-2.1934,-2.1928,-2.1987,-2.1977,-2.1959,-2.1927,-2.1985,-2.2008,-2.2018,-2.1894,-2.1893,-2.1892,-2.1891,0,0,-2.1766,-2.179,-2.1801,-2.1812,-2.1832,-2.1856,-2.1892,-2.192,-2.1936,-2.1956,-2.1985,-2.2026,-2.201,-2.2025,-2.202,-2.2046,-2.2103,-2.2025,-2.2026,-2.2039,-2.2169,-2.2181,-2.2192,-2.2095,-2.2096,-2.2098,-2.2167,0,-2.1833,-2.1895,-2.1892,-2.1951,-2.1979,-2.1964,-2.1995,-2.2011,-2.2016,-2.2041,-2.2046,-2.2074,-2.2051,-2.206,-2.2085,-2.2091,-2.2129,-2.2086,-2.2122,-2.2123,-2.2116,-2.2204,-2.2217,-2.2281,-2.2176,-2.2178,-2.2179,0,-2.1917,-2.194,-2.2002,-2.2018,-2.203,-2.2059,-2.2084,-2.2108,-2.2126,-2.2128,-2.2145,-2.2137,-2.2174,-2.2143,-2.2193,-2.2164,-2.2179,-2.2184,-2.2187,-2.2189,-2.2153,-2.2207,-2.2302,-2.2311,-2.2193,-2.2192,-2.2191,0,-2.1973,-2.2019,-2.2062,-2.2073,-2.2093,-2.2114,-2.2123,-2.214,-2.2156,-2.2179,-2.219,-2.2216,-2.223,-2.2251,-2.225,-2.2228,-2.2302,-2.2271,-2.2304,-2.2304,-2.2318,-2.2317,-2.2416,-2.233,-2.233,-2.233,-2.233,0,-2.2047,-2.2085,-2.2087,-2.2114,-2.2156,-2.2153,-2.2195,-2.2203,-2.2218,-2.2245,-2.2234,-2.226,-2.2258,-2.2285,-2.2284,-2.2326,-2.2333,-2.2335,-2.2334,-2.2335,-2.2335,-2.2344,-2.2339,-2.2332,-2.2332,-2.2331,-2.2331,0,-2.2115,-2.2119,-2.2164,-2.2181,-2.2186,-2.2216,-2.223,-2.2255,-2.226,-2.2295,-2.2303,-2.2309,-2.234,-2.2342,-2.2378,-2.2378,-2.2428,-2.2423,-2.2422,-2.2421,-2.2453,-2.245,-2.256,-2.2574,-2.248,-2.2481,-2.2482,0,-2.2161,-2.219,-2.221,-2.2228,-2.2239,-2.2268,-2.2285,-2.2284,-2.2303,-2.2327,-2.2349,-2.2379,-2.2402,-2.2453,-2.246,-2.2488,-2.2483,-2.2519,-2.2486,-2.2487,-2.2482,-2.248,-2.2483,-2.2525,-2.2526,-2.2527,-2.2528,0,-2.2242,-2.2243,-2.2268,-2.2295,-2.2317,-2.2338,-2.2357,-2.2373,-2.2374,-2.2396,-2.2427,-2.2446,-2.2483,-2.2512,-2.254,-2.2549,-2.2539,-2.2538,-2.2547,-2.2548,-2.2546,-2.2546,-2.2438,-2.2535,-2.2535,-2.2534,-2.2534,-2.2533,-2.23,-2.2325,-2.2343,-2.2373,-2.2388,-2.2407,-2.2431,-2.2439,-2.2465,-2.2495,-2.2493,-2.2529,-2.2547,-2.2582,-2.2595,-2.2622,-2.261,-2.2623,-2.2626,-2.2629,-2.2632,-2.2543,-2.2627,-2.2627,-2.2627,-2.2627,-2.2627,0,-2.2379,-2.2391,-2.2418,-2.2446,-2.2469,-2.2459,-2.248,-2.25,-2.2531,-2.255,-2.2574,-2.2611,-2.264,-2.2651,-2.268,-2.27,-2.2696,-2.2707,-2.2705,-2.2707,-2.2642,-2.2631,-2.271,-2.271,-2.271,-2.271,-2.271,-2.271,-2.2423,-2.2465,-2.2469,-2.2519,-2.253,-2.2564,-2.2577,-2.2595,-2.261,-2.2651,-2.2676,-2.2683,-2.2699,-2.2729,-2.2756,-2.2758,-2.2769,-2.2782,-2.2783,-2.2721,-2.2712,-2.2704,-2.2694,-2.2785,-2.2785,-2.2846,-2.2846,-2.2847]},{"header":{"parameterUnit":"m.s-1","parameterCategory":1,"la1":30.2991,"la2":30.254,"lo1":-89.0895,"lo2":-89.0444,"dy":0.0017,"dx":0.0017,"nx":28,"ny":28,"refTime":"2025-11-19T09:00:00:Z","depth":0,"parameterNumber":3,"parameterNumberName":"V-component_of_WINDS"},"data":[0,0,0,0,0,0,0,0,0,0,0,0,0,0,0,0,0,0,0,0,0,0,0,0,0,0,0,0,0,0,0,0,0,0,0,0,0,0,0,0,0,0,0,0,0,0,0,0,0,0,0,0,0,0,0,0,0,0,1.0218,1.0218,0,1.0246,1.0246,1.0247,1.0255,1.0255,1.0255,1.0255,1.0282,1.0283,1.0284,0,0,0,0,0,0,0,0,0,0,0,0,0,1.0172,1.0173,1.0218,1.0218,1.0219,1.0246,1.0246,1.0247,1.0255,1.0255,1.0255,1.0255,1.0282,1.0283,1.0284,0,0,0,0,0,0,0,0,0,0,0,0,0,1.0195,1.0173,1.0218,1.0226,1.0227,1.0246,1.0246,1.0247,1.0256,1.0255,1.0255,1.0255,1.0282,1.0283,1.0284,1.0296,0,0,1.0288,1.0289,0,0,0,0,0,0,0,0,1.0194,1.0197,1.0225,1.0226,1.0227,1.0247,1.024,1.0263,1.0256,1.0245,1.0255,1.0255,1.0271,1.0273,1.0278,1.0297,1.0298,1.0288,1.0289,1.029,1.029,0,0,0,0,0,0,0,1.0192,1.0196,1.0229,1.0225,1.0226,1.0229,1.0232,1.0245,1.0258,1.0246,1.0246,1.025,1.0271,1.0277,1.0279,1.0299,1.0288,1.0289,1.029,1.0291,1.033,1.0331,0,0,0,0,0,0,1.0189,1.0194,1.0228,1.023,1.021,1.023,1.0233,1.0241,1.0258,1.0261,1.025,1.025,1.0275,1.0278,1.028,1.0296,1.0289,1.0291,1.0291,1.033,1.033,1.0331,0,0,0,0,0,0,1.0188,1.0192,1.0227,1.0212,1.0217,1.0231,1.0239,1.0241,1.0247,1.0261,1.0264,1.0253,1.0275,1.0278,1.0292,1.0297,1.0291,1.0292,1.033,1.033,1.0331,1.0328,0,0,0,0,0,0,1.0187,1.0192,1.0196,1.0212,1.0218,1.0239,1.0239,1.0242,1.025,1.025,1.0265,1.0268,1.0275,1.0291,1.0294,1.0299,1.0293,1.0329,1.033,1.033,1.0327,1.0328,1.0328,0,0,0,0,0,1.0185,1.0193,1.0196,1.02,1.0223,1.0239,1.0242,1.0251,1.025,1.0255,1.0264,1.0267,1.0296,1.0292,1.0295,1.0301,1.0329,1.033,1.033,1.0327,1.0328,1.0328,0,0,0,0,0,0,1.0176,1.0196,1.0199,1.0212,1.0224,1.024,1.0246,1.0251,1.0262,1.0262,1.0272,1.0276,1.0289,1.0297,1.0291,1.0314,1.0313,1.0314,1.0309,1.031,1.031,1.0308,1.0294,0,0,0,0,0,1.0176,1.0187,1.0203,1.0214,1.0219,1.0232,1.0239,1.0245,1.0257,1.0262,1.0272,1.0284,1.0296,1.0303,1.0315,1.0329,1.0333,1.0334,1.0335,1.0335,1.0336,1.0346,1.0348,1.0333,1.0333,1.0333,0,0,1.0175,1.0187,1.0193,1.0212,1.0222,1.0234,1.0236,1.0247,1.0256,1.0263,1.0278,1.0286,1.03,1.0314,1.0321,1.0321,1.0342,1.0336,1.0336,1.0337,1.0347,1.0349,1.035,1.0333,1.0333,1.0333,0,0,1.018,1.0189,1.02,1.021,1.0226,1.0234,1.0237,1.0253,1.0259,1.0274,1.028,1.0291,1.0311,1.0321,1.0328,1.034,1.0343,1.0343,1.0346,1.0355,1.0356,1.0357,1.0363,1.0364,1.0344,1.0344,1.0344,0,1.0177,1.0194,1.0205,1.0217,1.0226,1.0234,1.0245,1.0255,1.0272,1.0278,1.0278,1.0305,1.0314,1.0332,1.0335,1.0341,1.0345,1.0341,1.0355,1.0357,1.0358,1.0363,1.0365,1.0344,1.0344,1.0344,1.0344,0,1.0191,1.0203,1.021,1.0229,1.0238,1.0249,1.0262,1.0271,1.0276,1.0285,1.0301,1.0314,1.0329,1.0333,1.0338,1.0353,1.0352,1.0353,1.0352,1.0359,1.0364,1.0366,1.0344,1.0344,1.0344,1.0344,0,0,1.0189,1.0215,1.0217,1.0227,1.0245,1.0255,1.0268,1.0283,1.0291,1.0304,1.0315,1.0333,1.0335,1.0344,1.035,1.0358,1.0369,1.0359,1.0359,1.0361,1.0387,1.0386,1.0388,1.0371,1.0372,1.0372,1.0386,0,1.0196,1.022,1.0231,1.0249,1.0262,1.0271,1.0282,1.0295,1.0304,1.0317,1.0326,1.034,1.034,1.0346,1.0355,1.0365,1.0374,1.0365,1.0383,1.0383,1.038,1.0391,1.039,1.0402,1.0388,1.0388,1.0389,0,1.0208,1.0222,1.0242,1.0262,1.0267,1.0277,1.0294,1.0305,1.032,1.0327,1.0338,1.0345,1.0359,1.0357,1.0378,1.0371,1.0379,1.0386,1.0387,1.0389,1.0386,1.0394,1.0406,1.0409,1.0391,1.0391,1.0391,0,1.0206,1.023,1.0246,1.0254,1.0276,1.0283,1.0293,1.0308,1.0318,1.0332,1.0339,1.0354,1.0363,1.0375,1.0386,1.0383,1.0406,1.0405,1.0412,1.0412,1.0417,1.0416,1.0431,1.0421,1.0421,1.0421,1.0421,0,1.0214,1.0226,1.0246,1.0255,1.027,1.0283,1.0297,1.0307,1.0321,1.0334,1.0342,1.0354,1.0368,1.0381,1.039,1.0407,1.041,1.0416,1.0418,1.0415,1.0415,1.0421,1.0421,1.0421,1.0421,1.0421,1.0421,0,1.0213,1.0227,1.0245,1.0266,1.0272,1.0282,1.0299,1.031,1.032,1.0336,1.034,1.0356,1.0373,1.0386,1.0406,1.0412,1.0431,1.0432,1.0426,1.0427,1.0434,1.0434,1.0454,1.0458,1.0444,1.0445,1.0445,0,1.0217,1.0228,1.025,1.026,1.0269,1.0284,1.0295,1.0308,1.0319,1.0338,1.0347,1.0364,1.0379,1.0405,1.0418,1.0435,1.0438,1.0444,1.044,1.0438,1.0439,1.0439,1.0441,1.0444,1.0444,1.0445,1.0445,0,1.0224,1.0231,1.0246,1.0264,1.0277,1.0291,1.0306,1.0313,1.0329,1.0341,1.0359,1.037,1.0393,1.041,1.0429,1.0439,1.0445,1.0446,1.0449,1.0446,1.0442,1.0446,1.0428,1.0445,1.0445,1.0445,1.0445,1.0445,1.0227,1.0237,1.0255,1.0272,1.0285,1.0299,1.0311,1.0323,1.0339,1.0359,1.0366,1.0385,1.0402,1.0427,1.0438,1.0453,1.0453,1.0457,1.0458,1.0459,1.0459,1.044,1.0456,1.0456,1.0456,1.0456,1.0456,0,1.0234,1.0247,1.0263,1.0284,1.0298,1.0303,1.0321,1.0332,1.0349,1.0364,1.0379,1.0401,1.0418,1.0434,1.0453,1.0462,1.0465,1.0467,1.0466,1.0469,1.0457,1.0454,1.0464,1.0464,1.0464,1.0464,1.0464,1.0464,1.024,1.0258,1.0268,1.0293,1.0306,1.0325,1.0334,1.0348,1.0361,1.0385,1.04,1.0411,1.0427,1.0448,1.0464,1.0469,1.0476,1.0476,1.0481,1.047,1.0469,1.0468,1.0465,1.0477,1.0477,1.0492,1.0492,1.0492]}]]